Regional Weather Roundup
Issued by NWS

Home | Current Version | Previous Version | Graphics & Text | Print | Product List | Glossary On
Versions: 1 2 3 4 5 6 7 8 9 10 11 12 13 14 15 16 17 18 19 20 21 22 23 24 25 26 27 28 29 30 31 32 33 34 35 36 37 38 39 40 41 42 43 44 45 46 47 48 49 50
000
ASUS43 KFSD 271710
RWRSD

WEATHER ROUNDUP FOR SOUTH DAKOTA
NATIONAL WEATHER SERVICE SIOUX FALLS SD
1200 PM CDT THU AUG 27 2015

NOTE: "FAIR" INDICATES FEW OR NO CLOUDS BELOW 12,000 FEET WITH NO
SIGNIFICANT WEATHER AND/OR OBSTRUCTIONS TO VISIBILITY.


SDZ001>005-009-010-012>017-271800-
NORTHWEST AND NORTH CENTRAL SOUTH DAKOTA

CITY           SKY/WX    TMP DP  RH WIND       PRES   REMARKS
BUFFALO          N/A     74  59  59 W6        29.95S
MOBRIDGE       CLOUDY    72  68  87 CALM      29.97F
$$

SDZ012>016-024>037-041>051-057-063-072>074-271800-
SOUTHWEST AND SOUTH CENTRAL SOUTH DAKOTA

CITY           SKY/WX    TMP DP  RH WIND       PRES   REMARKS
RAPID CTY ARPT CLOUDY    70  61  73 N7        30.06R
PIERRE         CLOUDY    74  65  73 E6        29.96F
CUSTER         CLOUDY    66  49  54 N9G18     30.18S
PHILIP         CLOUDY    72  63  73 N14       29.99S
PINE RIDGE     PTSUNNY   74  57  55 N10       30.03R
WINNER         CLOUDY    78  67  68 NE8       29.96R
$$

SDZ004>011-016>023-039-040-271800-
NORTHEAST SOUTH DAKOTA

CITY           SKY/WX    TMP DP  RH WIND       PRES   REMARKS
ABERDEEN       PTSUNNY   77  67  71 N5        29.96S
WATERTOWN      CLOUDY    70  66  87 N9        29.97S
BROOKINGS      CLOUDY    66  63  88 SE8       30.02R
SISSETON         N/A     72  63  73 S6        29.96F
$$

SDZ017-020-022-023-036>040-048>070-271800-
SOUTHEAST SOUTH DAKOTA

CITY           SKY/WX    TMP DP  RH WIND       PRES   REMARKS
SIOUX FALLS    CLOUDY    73  64  73 VRB6      30.02R
HURON          CLOUDY    72  66  81 SW8       29.98R
CHAMBERLAIN    MOSUNNY   77  66  68 E8        29.97S
MITCHELL       CLOUDY    73  67  81 E12       29.98R
YANKTON        CLOUDY    72  64  78 SE15      29.95F
$$

ABBREVIATIONS USED IN REMARKS
   TC - TEMPERATURE IN CELSIUS
  WCI - WIND CHILL INDEX
   HX - HEAT INDEX
  VSB - VISIBILITY



USA.gov is the U.S. government's official web portal to all federal, state and local government web resources and services.